Atwater, CA

5:16 PM PST on November 20, 2017 (GMT -0800)
Castle

Weather History for KMER - January, 2013

Change the Weather History Date:

Wednesday, January 9, 2013

  Actual Average (KMCE) Record (KMCE)
Temperature  
Mean Temperature 45 °F -  
Max Temperature 53 °F 54 °F 66 °F (2004)
Min Temperature 37 °F 36 °F 28 °F (2007)
Degree Days  
Heating Degree Days 20    
Moisture  
Dew Point 42 °F    
Average Humidity 94    
Maximum Humidity 100    
Minimum Humidity 66    
Precipitation  
Precipitation 0.00 in - - ()
Sea Level Pressure  
Sea Level Pressure 30.09 in    
Wind  
Wind Speed 3 mph (North)    
Max Wind Speed 18 mph    
Max Gust Speed 23 mph    
Visibility 5 miles    
Events      
Averages and records for this station are not official NWS values.
T = Trace of Precipitation, MM = Missing Value Source: NWS Daily Summary

Daily Weather History Graph

Daily Weather History Graph

Search for Another Location

Airport or City:

Trip Planner

Search our weather history database for the weather conditions in past years. The results will help you decide how hot, cold, wet, or windy it might be!

Date:

Astronomy

Jan. 09, 2013 Rise Set
Actual Time 7:16 AM PST 5:02 PM PST
Civil Twilight 6:47 AM PST 5:31 PM PST
Nautical Twilight 6:15 AM PST 6:03 PM PST
Astronomical Twilight 5:44 AM PST 6:35 PM PST
Moon 5:01 AM PST (1/9) 3:09 PM PST (1/9)
Length of Visible Light 10h 43m
Length of Day
9h 45m
Waning Crescent, 6% of the Moon is Illuminated
Jan 9
Waning Crescent
Jan 11
New
Jan 18
First Quarter
Jan 26
Full
Feb 3
Last Quarter

Hourly Weather History & Observations

Time (PST) Temp. Windchill Dew Point Humidity Pressure Visibility Wind Dir Wind Speed Gust Speed Precip Events Conditions
12:15 AM 37.4 °F 34.9 °F 37.4 °F 100% 30.18 in 4.0 mi ESE 3.5 mph - N/A   Clear
12:35 AM 37.4 °F 34.9 °F 37.4 °F 100% 30.17 in 5.0 mi SE 3.5 mph - N/A   Clear
12:55 AM 39.2 °F - 39.2 °F 100% 30.18 in 5.0 mi Calm Calm - N/A   Clear
1:15 AM 39.2 °F - 39.2 °F 100% 30.18 in 5.0 mi Calm Calm - N/A   Clear
1:35 AM 37.4 °F - 37.4 °F 100% 30.18 in 5.0 mi Calm Calm - N/A   Clear
1:55 AM 37.4 °F - 37.4 °F 100% 30.18 in 4.0 mi Calm Calm - N/A   Clear
2:15 AM 37.4 °F - 37.4 °F 100% 30.18 in 3.0 mi Calm Calm - N/A   Clear
2:35 AM 37.4 °F 34.9 °F 37.4 °F 100% 30.17 in 4.0 mi SSE 3.5 mph - N/A   Clear
2:55 AM 37.4 °F 33.8 °F 37.4 °F 100% 30.16 in 8.0 mi SSE 4.6 mph - N/A   Clear
3:15 AM 37.4 °F 33.8 °F 37.4 °F 100% 30.14 in 7.0 mi SSE 4.6 mph - N/A   Clear
3:35 AM 39.2 °F - 39.2 °F 100% 30.15 in 5.0 mi Calm Calm - N/A   Clear
3:55 AM 39.2 °F 37.0 °F 39.2 °F 100% 30.14 in 8.0 mi South 3.5 mph - N/A   Clear
4:15 AM 37.4 °F 34.9 °F 37.4 °F 100% 30.12 in 5.0 mi SSE 3.5 mph - N/A   Clear
4:35 AM 37.4 °F - 37.4 °F 100% 30.12 in 5.0 mi Calm Calm - N/A   Clear
4:55 AM 37.4 °F 33.8 °F 37.4 °F 100% 30.12 in 5.0 mi SE 4.6 mph - N/A   Clear
5:15 AM 39.2 °F - 39.2 °F 100% 30.12 in 5.0 mi Calm Calm - N/A   Clear
5:35 AM 39.2 °F 37.0 °F 39.2 °F 100% 30.12 in 5.0 mi SSE 3.5 mph - N/A   Clear
5:55 AM 37.4 °F - 37.4 °F 100% 30.12 in 5.0 mi Calm Calm - N/A   Clear
6:45 AM 37.4 °F - 37.4 °F 100% 30.12 in 3.0 mi Calm Calm - N/A   Clear
7:45 AM 37.4 °F - 37.4 °F 100% 30.10 in 3.0 mi Calm Calm - N/A   Clear
8:10 AM 39.2 °F - 39.2 °F 100% 30.12 in 2.5 mi Calm Calm - N/A   Clear
8:45 AM 39.2 °F - 39.2 °F 100% 30.11 in 2.5 mi Calm Calm - N/A   Clear
9:45 AM 46.4 °F - 46.4 °F 100% 30.11 in 2.5 mi Calm Calm - N/A   Clear
10:55 AM 51.8 °F - 51.8 °F 100% 30.08 in 3.0 mi Variable 4.6 mph - N/A   Haze
11:45 AM 51.8 °F - 51.8 °F 100% 30.06 in 3.0 mi Calm Calm - N/A   Haze
12:45 PM 53.6 °F - 48.2 °F 82% 30.03 in 3.0 mi Calm Calm - N/A   Haze
1:45 PM 53.6 °F - 50.0 °F 88% 30.01 in 3.0 mi Calm Calm - N/A   Haze
2:45 PM 53.6 °F - 51.8 °F 94% 30.00 in 3.0 mi Calm Calm - N/A   Haze
3:45 PM 51.8 °F - 51.8 °F 100% 29.99 in 3.0 mi Calm Calm - N/A   Haze
4:45 PM 50.0 °F - 50.0 °F 100% 29.98 in 3.0 mi NW 5.8 mph - N/A   Haze
5:45 PM 48.2 °F - 48.2 °F 100% 29.98 in 3.0 mi NW 5.8 mph - N/A   Haze
6:45 PM 48.2 °F - 48.2 °F 100% 29.98 in 3.0 mi Calm Calm - N/A   Haze
7:45 PM 48.2 °F - 48.2 °F 100% 30.00 in 3.0 mi NNW 9.2 mph - N/A   Haze
8:15 PM 48.2 °F - 48.2 °F 100% 30.00 in 8.0 mi North 15.0 mph - N/A   Overcast
8:35 PM 48.2 °F - 46.4 °F 93% 30.01 in 10.0 mi North 15.0 mph - N/A   Overcast
8:55 PM 48.2 °F - 42.8 °F 82% 30.02 in 10.0 mi NNW 18.4 mph 23.0 mph N/A   Mostly Cloudy
9:15 PM 48.2 °F - 39.2 °F 71% 30.02 in 10.0 mi NNW 16.1 mph - N/A   Overcast
9:35 PM 48.2 °F - 39.2 °F 71% 30.04 in 10.0 mi NNW 12.7 mph - N/A   Overcast
9:55 PM 48.2 °F - 39.2 °F 71% 30.05 in 10.0 mi NW 12.7 mph - N/A   Overcast
10:15 PM 48.2 °F - 37.4 °F 66% 30.06 in 10.0 mi NNW 8.1 mph - N/A   Overcast
10:35 PM 46.4 °F 41.1 °F 37.4 °F 71% 30.05 in 10.0 mi North 11.5 mph - N/A   Overcast
10:55 PM 46.4 °F 41.5 °F 35.6 °F 66% 30.07 in 10.0 mi North 10.4 mph - N/A   Overcast